| time (UTC) | temp F | wind direction | speed MPH | gust MPH | rain 1hr in | rain 24hr in | rain mn in | humidity % | barometer mb |
| 20260507071517 | 50 | 203 | 4.0 | 9.0 | 0.01 | 0.27 | 0.02 | 95 | 1009.8 |
| 20260507070517 | 49 | 203 | 5.0 | 9.0 | 0.00 | 0.26 | 0.01 | 95 | 1009.8 |
| 20260507065537 | 49 | 203 | 6.0 | 11.0 | 0.00 | 0.26 | 0.01 | 95 | 1009.9 |
| 20260507064517 | 49 | 203 | 5.0 | 9.0 | 0.00 | 0.26 | 0.01 | 95 | 1009.7 |
| 20260507063517 | 49 | 203 | 4.0 | 10.0 | 0.00 | 0.26 | 0.01 | 95 | 1009.6 |
| 20260507062517 | 49 | 180 | 6.0 | 10.0 | 0.00 | 0.26 | 0.01 | 95 | 1009.5 |
| 20260507061518 | 49 | 203 | 5.0 | 9.0 | 0.00 | 0.26 | 0.01 | 95 | 1009.5 |
| 20260507060517 | 49 | 203 | 3.0 | 6.0 | 0.00 | 0.26 | 0.01 | 95 | 1009.5 |
| 20260507055517 | 49 | 203 | 5.0 | 10.0 | 0.00 | 0.26 | 0.01 | 95 | 1009.4 |
| 20260507054516 | 49 | 203 | 3.0 | 6.0 | 0.00 | 0.26 | 0.01 | 95 | 1009.2 |
| 20260507053537 | 49 | 180 | 2.0 | 4.0 | 0.00 | 0.26 | 0.01 | 95 | 1009.2 |
| 20260507052536 | 49 | 225 | 4.0 | 6.0 | 0.00 | 0.26 | 0.01 | 95 | 1009.0 |
| 20260507051517 | 49 | 225 | 4.0 | 9.0 | 0.00 | 0.26 | 0.01 | 95 | 1008.8 |
| 20260507050517 | 49 | 225 | 4.0 | 9.0 | 0.00 | 0.26 | 0.01 | 95 | 1009.1 |
| 20260507045537 | 49 | 225 | 3.0 | 8.0 | 0.00 | 0.26 | 0.01 | 95 | 1008.9 |
| 20260507044537 | 49 | 180 | 2.0 | 5.0 | 0.00 | 0.26 | 0.01 | 95 | 1008.9 |
| 20260507043516 | 49 | 225 | 3.0 | 6.0 | 0.00 | 0.26 | 0.01 | 95 | 1008.9 |
| 20260507042536 | 49 | 225 | 3.0 | 6.0 | 0.00 | 0.26 | 0.01 | 95 | 1008.9 |
| 20260507041516 | 49 | 225 | 4.0 | 9.0 | 0.00 | 0.26 | 0.01 | 95 | 1008.8 |
| 20260507040516 | 49 | 248 | 4.0 | 8.0 | 0.00 | 0.26 | 0.01 | 95 | 1008.8 |
| 20260507035516 | 49 | 225 | 3.0 | 6.0 | 0.00 | 0.26 | 0.01 | 95 | 1008.8 |
| 20260507034539 | 49 | 203 | 4.0 | 9.0 | 0.00 | 0.26 | 0.01 | 95 | 1008.7 |
| 20260507033516 | 49 | 203 | 4.0 | 6.0 | 0.00 | 0.26 | 0.01 | 95 | 1008.6 |
| 20260507032516 | 49 | 225 | 4.0 | 8.0 | 0.00 | 0.26 | 0.01 | 95 | 1008.6 |
| 20260507031516 | 50 | 225 | 5.0 | 11.0 | 0.00 | 0.26 | 0.01 | 95 | 1008.5 |
| 20260507030516 | 50 | 203 | 4.0 | 9.0 | 0.00 | 0.26 | 0.01 | 95 | 1008.4 |
| 20260507025536 | 50 | 225 | 5.0 | 9.0 | 0.00 | 0.26 | 0.01 | 95 | 1008.3 |
| 20260507024516 | 50 | 225 | 3.0 | 6.0 | 0.00 | 0.26 | 0.01 | 95 | 1008.2 |
| 20260507023536 | 50 | 225 | 4.0 | 9.0 | 0.00 | 0.26 | 0.01 | 95 | 1008.2 |
| 20260507022516 | 50 | 248 | 3.0 | 5.0 | 0.00 | 0.26 | 0.01 | 95 | 1008.4 |
| 20260507021517 | 51 | 203 | 3.0 | 6.0 | 0.00 | 0.26 | 0.01 | 95 | 1008.2 |
| 20260507020516 | 51 | 248 | 2.0 | 6.0 | 0.00 | 0.26 | 0.01 | 95 | 1008.2 |
| 20260507015516 | 51 | 203 | 3.0 | 9.0 | 0.00 | 0.26 | 0.01 | 95 | 1008.3 |
| 20260507014516 | 51 | 203 | 4.0 | 7.0 | 0.00 | 0.26 | 0.01 | 95 | 1008.0 |
| 20260507013516 | 51 | 225 | 4.0 | 7.0 | 0.00 | 0.26 | 0.01 | 95 | 1008.0 |
| 20260507012536 | 51 | 203 | 4.0 | 6.0 | 0.00 | 0.26 | 0.01 | 95 | 1008.0 |
| 20260507011516 | 51 | 248 | 3.0 | 6.0 | 0.00 | 0.26 | 0.01 | 95 | 1008.0 |
| 20260507010516 | 51 | 225 | 5.0 | 11.0 | 0.00 | 0.26 | 0.01 | 95 | 1007.9 |
| 20260507005516 | 51 | 203 | 4.0 | 7.0 | 0.00 | 0.26 | 0.01 | 94 | 1007.9 |
| 20260507004516 | 51 | 225 | 3.0 | 7.0 | 0.00 | 0.26 | 0.01 | 94 | 1008.0 |
| 20260507003516 | 51 | 225 | 4.0 | 7.0 | 0.00 | 0.26 | 0.01 | 94 | 1007.9 |
| 20260507002516 | 51 | 203 | 4.0 | 7.0 | 0.00 | 0.26 | 0.01 | 94 | 1007.8 |
| 20260507001516 | 51 | 248 | 4.0 | 7.0 | 0.00 | 0.26 | 0.01 | 94 | 1008.0 |
| 20260507000516 | 51 | 158 | 2.0 | 5.0 | 0.00 | 0.26 | 0.01 | 94 | 1008.0 |
| 20260506235556 | 52 | 203 | 1.0 | 3.0 | 0.00 | 0.26 | 0.01 | 94 | 1007.9 |
| 20260506234516 | 51 | 158 | 1.0 | 2.0 | 0.00 | 0.26 | 0.01 | 94 | 1007.9 |
| 20260506233536 | 52 | 158 | 1.0 | 2.0 | 0.00 | 0.26 | 0.01 | 94 | 1008.1 |
| 20260506232516 | 52 | 203 | 1.0 | 4.0 | 0.00 | 0.26 | 0.01 | 94 | 1008.0 |
| 20260506231516 | 52 | 158 | 2.0 | 4.0 | 0.00 | 0.26 | 0.01 | 94 | 1008.0 |
| 20260506230516 | 52 | 180 | 2.0 | 3.0 | 0.01 | 0.27 | 0.01 | 94 | 1007.9 |
| 20260506225536 | 52 | 0.0 | 2.0 | 0.01 | 0.27 | 0.01 | 94 | 1007.7 | |
| 20260506224516 | 52 | 225 | 1.0 | 5.0 | 0.01 | 0.27 | 0.01 | 94 | 1007.5 |
| 20260506223516 | 52 | 225 | 1.0 | 3.0 | 0.01 | 0.27 | 0.01 | 94 | 1007.6 |
| 20260506222516 | 52 | 158 | 2.0 | 4.0 | 0.01 | 0.27 | 0.01 | 94 | 1007.5 |
| 20260506221516 | 52 | 158 | 1.0 | 5.0 | 0.01 | 0.27 | 0.01 | 94 | 1007.4 |
| 20260506220536 | 52 | 158 | 1.0 | 2.0 | 0.00 | 0.26 | 0.00 | 94 | 1007.3 |
| 20260506215516 | 53 | 158 | 2.0 | 4.0 | 0.00 | 0.26 | 0.26 | 94 | 1007.4 |
| 20260506214517 | 53 | 158 | 1.0 | 3.0 | 0.00 | 0.26 | 0.26 | 94 | 1007.5 |
| 20260506213537 | 53 | 0.0 | 2.0 | 0.01 | 0.26 | 0.26 | 93 | 1007.3 | |
| 20260506212516 | 53 | 180 | 1.0 | 2.0 | 0.02 | 0.26 | 0.26 | 93 | 1007.3 |
| 20260506211516 | 53 | 0.0 | 1.0 | 0.03 | 0.26 | 0.26 | 93 | 1007.0 | |
| 20260506210516 | 53 | 0.0 | 1.0 | 0.06 | 0.26 | 0.26 | 93 | 1007.1 | |
| 20260506205516 | 53 | 113 | 1.0 | 3.0 | 0.09 | 0.26 | 0.26 | 93 | 1007.0 |
| 20260506204516 | 53 | 113 | 1.0 | 3.0 | 0.11 | 0.26 | 0.26 | 93 | 1007.1 |
| 20260506203537 | 53 | 158 | 1.0 | 4.0 | 0.11 | 0.25 | 0.25 | 93 | 1006.9 |
| 20260506202516 | 53 | 113 | 2.0 | 3.0 | 0.12 | 0.24 | 0.24 | 93 | 1006.8 |
| 20260506201516 | 53 | 135 | 3.0 | 6.0 | 0.12 | 0.23 | 0.23 | 93 | 1006.7 |
| 20260506200517 | 54 | 158 | 4.0 | 8.0 | 0.10 | 0.20 | 0.20 | 93 | 1006.8 |
| 20260506195517 | 53 | 180 | 3.0 | 8.0 | 0.07 | 0.17 | 0.17 | 92 | 1006.7 |
| 20260506194516 | 53 | 158 | 2.0 | 5.0 | 0.05 | 0.15 | 0.15 | 92 | 1006.6 |
| 20260506193516 | 54 | 225 | 2.0 | 3.0 | 0.04 | 0.14 | 0.14 | 92 | 1006.3 |
| 20260506192536 | 54 | 135 | 1.0 | 3.0 | 0.02 | 0.13 | 0.13 | 92 | 1005.8 |
| 20260506191536 | 54 | 135 | 2.0 | 3.0 | 0.01 | 0.11 | 0.11 | 92 | 1005.9 |
| 20260506190516 | 54 | 158 | 3.0 | 5.0 | 0.00 | 0.10 | 0.10 | 91 | 1005.7 |
| 20260506185516 | 54 | 0.0 | 1.0 | 0.00 | 0.10 | 0.10 | 91 | 1005.3 | |
| 20260506184536 | 54 | 0.0 | 0.0 | 0.00 | 0.10 | 0.10 | 91 | 1005.1 | |
| 20260506183516 | 54 | 0.0 | 0.0 | 0.00 | 0.10 | 0.10 | 90 | 1004.9 | |
| 20260506182536 | 54 | 0.0 | 1.0 | 0.01 | 0.10 | 0.10 | 90 | 1004.8 | |
| 20260506181517 | 55 | 0.0 | 2.0 | 0.02 | 0.10 | 0.10 | 90 | 1004.5 | |
| 20260506180519 | 55 | 0.0 | 0.0 | 0.04 | 0.10 | 0.10 | 89 | 1004.6 | |
| 20260506175539 | 55 | 0.0 | 0.0 | 0.07 | 0.10 | 0.10 | 89 | 1004.4 | |
| 20260506174536 | 55 | 0.0 | 0.0 | 0.09 | 0.10 | 0.10 | 88 | 1004.5 | |
| 20260506173516 | 55 | 0.0 | 0.0 | 0.09 | 0.10 | 0.10 | 88 | 1004.6 | |
| 20260506172516 | 56 | 0.0 | 0.0 | 0.09 | 0.21 | 0.09 | 87 | 1004.7 | |
| 20260506171516 | 56 | 0.0 | 1.0 | 0.07 | 0.31 | 0.08 | 87 | 1004.5 | |
| 20260506170516 | 57 | 270 | 2.0 | 7.0 | 0.06 | 0.41 | 0.06 | 85 | 1004.7 |
| 20260506165639 | 58 | 270 | 5.0 | 11.0 | 0.02 | 0.39 | 0.02 | 83 | 1004.7 |
| 20260506164516 | 60 | 293 | 3.0 | 8.0 | 0.00 | 0.37 | 0.01 | 79 | 1004.4 |
| 20260506163516 | 61 | 315 | 4.0 | 9.0 | 0.00 | 0.37 | 0.01 | 74 | 1004.2 |
| 20260506162516 | 61 | 0.0 | 4.0 | 0.00 | 0.37 | 0.01 | 72 | 1004.2 | |
| 20260506161516 | 62 | 315 | 1.0 | 5.0 | 0.00 | 0.37 | 0.01 | 71 | 1004.2 |
| 20260506160516 | 63 | 293 | 1.0 | 5.0 | 0.00 | 0.37 | 0.01 | 70 | 1004.4 |
| 20260506155516 | 63 | 0.0 | 2.0 | 0.00 | 0.37 | 0.01 | 69 | 1004.4 | |
| 20260506154516 | 64 | 0.0 | 2.0 | 0.00 | 0.37 | 0.01 | 70 | 1004.5 | |
| 20260506153516 | 64 | 0.0 | 0.0 | 0.00 | 0.37 | 0.01 | 66 | 1004.5 | |
| 20260506152516 | 65 | 0.0 | 2.0 | 0.00 | 0.37 | 0.01 | 66 | 1004.7 | |
| 20260506151516 | 65 | 0.0 | 0.0 | 0.00 | 0.37 | 0.01 | 68 | 1004.5 | |
| 20260506150516 | 65 | 0.0 | 0.0 | 0.00 | 0.37 | 0.01 | 65 | 1004.5 | |
| 20260506145515 | 65 | 270 | 1.0 | 4.0 | 0.00 | 0.37 | 0.01 | 66 | 1004.7 |
| 20260506144516 | 65 | 0.0 | 0.0 | 0.00 | 0.37 | 0.01 | 68 | 1004.7 | |
| 20260506143515 | 65 | 0.0 | 1.0 | 0.00 | 0.37 | 0.01 | 66 | 1004.7 | |
| 20260506142516 | 66 | 0.0 | 2.0 | 0.00 | 0.37 | 0.01 | 65 | 1004.8 | |
| 20260506141516 | 65 | 135 | 1.0 | 5.0 | 0.00 | 0.37 | 0.01 | 66 | 1004.8 |
| 20260506140515 | 65 | 158 | 1.0 | 4.0 | 0.00 | 0.37 | 0.01 | 66 | 1004.7 |
| 20260506135515 | 66 | 225 | 2.0 | 4.0 | 0.00 | 0.37 | 0.01 | 65 | 1004.9 |
| 20260506134515 | 63 | 0.0 | 0.0 | 0.00 | 0.37 | 0.01 | 68 | 1004.9 | |
| 20260506133536 | 63 | 0.0 | 1.0 | 0.00 | 0.37 | 0.01 | 67 | 1005.0 | |
| 20260506132518 | 64 | 0.0 | 1.0 | 0.00 | 0.37 | 0.01 | 70 | 1005.1 | |
| 20260506131518 | 63 | 0.0 | 1.0 | 0.00 | 0.37 | 0.01 | 71 | 1005.3 | |
| 20260506130517 | 62 | 0.0 | 3.0 | 0.00 | 0.37 | 0.01 | 70 | 1005.2 | |
| 20260506125537 | 62 | 135 | 1.0 | 3.0 | 0.00 | 0.37 | 0.01 | 71 | 1005.2 |
| 20260506124558 | 62 | 135 | 1.0 | 3.0 | 0.00 | 0.37 | 0.01 | 68 | 1005.4 |
| 20260506123517 | 63 | 0.0 | 2.0 | 0.00 | 0.37 | 0.01 | 69 | 1005.4 | |
| 20260506122517 | 63 | 0.0 | 3.0 | 0.00 | 0.37 | 0.01 | 70 | 1005.5 | |
| 20260506121517 | 63 | 158 | 1.0 | 3.0 | 0.00 | 0.37 | 0.01 | 68 | 1005.4 |
| 20260506120517 | 63 | 180 | 1.0 | 6.0 | 0.00 | 0.37 | 0.01 | 68 | 1005.4 |
| 20260506115558 | 63 | 158 | 3.0 | 7.0 | 0.00 | 0.37 | 0.01 | 69 | 1005.5 |
| 20260506114517 | 63 | 158 | 1.0 | 4.0 | 0.00 | 0.37 | 0.01 | 69 | 1005.5 |
| 20260506113517 | 64 | 225 | 3.0 | 6.0 | 0.00 | 0.37 | 0.01 | 67 | 1005.7 |
| 20260506112517 | 64 | 248 | 3.0 | 9.0 | 0.00 | 0.37 | 0.01 | 67 | 1005.8 |
| 20260506111517 | 64 | 180 | 4.0 | 8.0 | 0.00 | 0.37 | 0.01 | 65 | 1005.9 |
| 20260506110537 | 64 | 225 | 4.0 | 7.0 | 0.00 | 0.37 | 0.01 | 71 | 1005.9 |
| 20260506105517 | 62 | 248 | 2.0 | 4.0 | 0.00 | 0.37 | 0.01 | 76 | 1005.9 |
| 20260506104517 | 61 | 180 | 2.0 | 5.0 | 0.00 | 0.37 | 0.01 | 78 | 1006.0 |
| 20260506103537 | 60 | 225 | 3.0 | 6.0 | 0.00 | 0.37 | 0.01 | 78 | 1005.8 |
| 20260506102517 | 60 | 158 | 5.0 | 8.0 | 0.00 | 0.37 | 0.01 | 80 | 1006.0 |
| 20260506101517 | 60 | 158 | 4.0 | 7.0 | 0.00 | 0.37 | 0.01 | 80 | 1006.0 |
| 20260506100517 | 60 | 158 | 4.0 | 9.0 | 0.00 | 0.37 | 0.01 | 80 | 1005.8 |
| 20260506095518 | 60 | 158 | 5.0 | 9.0 | 0.00 | 0.37 | 0.01 | 80 | 1005.8 |
| 20260506094517 | 60 | 158 | 4.0 | 7.0 | 0.00 | 0.37 | 0.01 | 80 | 1005.8 |
| 20260506093517 | 59 | 158 | 4.0 | 6.0 | 0.00 | 0.37 | 0.01 | 80 | 1005.8 |
| 20260506092517 | 60 | 158 | 4.0 | 9.0 | 0.00 | 0.37 | 0.01 | 79 | 1005.7 |
| 20260506091517 | 61 | 180 | 4.0 | 7.0 | 0.00 | 0.37 | 0.01 | 80 | 1005.7 |
| 20260506090517 | 60 | 158 | 4.0 | 8.0 | 0.00 | 0.37 | 0.01 | 83 | 1005.6 |
| 20260506085517 | 60 | 158 | 4.0 | 9.0 | 0.00 | 0.37 | 0.01 | 85 | 1006.0 |
| 20260506084517 | 60 | 180 | 5.0 | 9.0 | 0.00 | 0.37 | 0.01 | 88 | 1006.0 |
| 20260506083517 | 58 | 158 | 4.0 | 8.0 | 0.00 | 0.37 | 0.01 | 92 | 1005.9 |
| 20260506082537 | 56 | 135 | 2.0 | 6.0 | 0.00 | 0.37 | 0.01 | 92 | 1005.6 |
| 20260506081517 | 55 | 158 | 3.0 | 6.0 | 0.00 | 0.37 | 0.01 | 92 | 1005.7 |
| 20260506080517 | 55 | 158 | 3.0 | 8.0 | 0.00 | 0.37 | 0.01 | 93 | 1005.5 |
| 20260506073517 | 55 | 158 | 3.0 | 6.0 | 0.00 | 0.37 | 0.01 | 94 | 1005.5 |
| 20260506072517 | 55 | 158 | 4.0 | 8.0 | 0.00 | 0.37 | 0.01 | 95 | 1005.6 |